[Iaude] MPEC H93: 2024 HS1 [a=1.76,e=0.38,i=27.3,H=24.0]
    mpec at cfa.harvard.edu 
    mpec at cfa.harvard.edu
       
    Mon Apr 29 19:54:00 EDT 2024
    
    
  
M.P.E.C. 2024-H93                                Issued 2024 April 29, 23:52 UT
     The Minor Planet Electronic Circulars contain information on unusual
         minor planets, routine data on comets and natural satellites,
         and occasional editorial announcements.  They are published
    on behalf of Division F of the International Astronomical Union by the
          Minor Planet Center, Smithsonian Astrophysical Observatory,
                          Cambridge, MA 02138, U.S.A.
			  
             Prepared using the Tamkin Foundation Computer Network
                              MPC at CFA.HARVARD.EDU
            URL https://www.minorplanetcenter.net/    ISSN 1523-6714
                                    2024 HS1                                    
Observations:
     K24H01S*1C2024 04 28.34405714 22 24.269-04 55 43.03         19.59GVEH093G96
     K24H01S 1C2024 04 28.34927014 22 22.343-04 56 44.23         19.93GVEH093G96
     K24H01S 1C2024 04 28.35448014 22 20.377-04 57 46.87         20.21GVEH093G96
     K24H01S 1C2024 04 28.35969114 22 18.408-04 58 48.11         20.14GVEH093G96
     K24H01S KC2024 04 28.37932514 22 11.075-05 02 39.95         20.34GVEH093I52
     K24H01S KC2024 04 28.38060914 22 10.585-05 02 55.18         20.40GVEH093I52
     K24H01S KC2024 04 28.38188614 22 10.114-05 03 10.58         20.08GVEH093I52
     K24H01S KC2024 04 28.38317114 22 09.613-05 03 25.63         20.43GVEH093I52
     K24H01S KC2024 04 28.88368414 19 13.582-06 44 07.94         20.4 GVEH093J95
     K24H01S KC2024 04 28.90691114 19 04.702-06 48 52.88         19.5 GVEH093J95
     K24H01S KC2024 04 28.91387514 19 02.074-06 50 17.81         20.3 GVEH093J95
     K24H01S KC2024 04 28.92106514 18 59.282-06 51 46.98         20.1 GVEH093J95
     K24H01S KC2024 04 28.92107 14 18 58.67 -06 51 43.3          19.5 GqEH093C75
     K24H01S KC2024 04 28.92112 14 18 58.65 -06 51 43.9                qEH093C75
     K24H01S KC2024 04 28.92116 14 18 58.64 -06 51 44.4                qEH093C75
     K24H01S KC2024 04 28.93604014 18 53.532-06 54 50.47         19.9 GVEH093J95
     K24H01S KC2024 04 28.99160414 18 31.26 -07 06 09.1          19.9 GVEH093L01
     K24H01S MC2024 04 28.99358414 18 30.51 -07 06 33.1          19.9 GVEH093L01
     K24H01S KC2024 04 28.99575014 18 29.69 -07 06 59.5          20.0 GVEH093L01
     K24H01S KC2024 04 29.00226314 18 27.11 -07 08 19.6          20.7 GVEH093L01
     K24H01S KC2024 04 29.00461414 18 26.18 -07 08 48.5          20.6 GVEH093L01
     K24H01S KC2024 04 29.00671714 18 25.36 -07 09 15.6          20.9 GVEH093L01
     K24H01S KC2024 04 29.96155 14 12 21.60 -10 30 21.0                VEH093104
     K24H01S KC2024 04 29.96733 14 12 19.16 -10 31 35.6          19.1 GVEH093104
Observer details:
104 San Marcello Pistoiese.  Observers P. Bacci, M. Maestripieri.  Measurer P.
    Bacci.  0.60-m f/4.0 reflector + CCD.
C75 Whitestar Observatory, Borgobello.  Observer T. Gregor.  Measurers V.
    Gonano, T. Gregor.  0.35-m f/5.7 Schmidt-Cassegrain + CCD.
G96 Mt. Lemmon Survey.  Observer T. Beuden.  Measurers T. Beuden, V. F.
    Carvajal, D. Fay, J. B. Fazekas, D. C. Fuls, A. R. Gibbs, A. D. Grauer, H.
    Groeller, J. K. Hogan, R. A. Kowalski, S. M. Larson, G. J. Leonard, D.
    Rankin, R. L. Seaman, F. C. Shelly, K. W. Wierzchos.  1.5-m reflector +
    10K CCD.
I52 Steward Observatory, Mt. Lemmon Station.  Observer R. A. Kowalski.
    Measurers T. Beuden, V. F. Carvajal, D. Fay, J. B. Fazekas, D. C. Fuls, A.
    R. Gibbs, A. D. Grauer, H. Groeller, J. K. Hogan, R. A. Kowalski, S. M.
    Larson, G. J. Leonard, D. Rankin, R. L. Seaman, F. C. Shelly, K. W.
    Wierzchos.  1.0-m prime focus + CCD.
J95 Great Shefford.  Observer P. Birtwhistle.  0.41-m f/6.3 Schmidt-Cassegrain
    + CCD.
L01 Visnjan Observatory, Tican.  Observer K. Korlevic.  1.0-m f/2.9 reflector
    + CCD.
Orbital elements:
2024 HS1                                                 Earth MOID = 0.1147 AU
Epoch 2024 Mar. 31.0 TT = JDT 2460400.5                 Veres                   
M 334.75260              (2000.0)            P               Q                  
n   0.42216415     Peri.  209.03744     -0.39622592     +0.87005110             
a   1.7598750      Node    39.76023     -0.72872599     -0.10368639             
e   0.3812631      Incl.   27.29432     -0.55853689     -0.48193383             
P   2.33           H   24.05          G   0.15           U   9                  
Residuals in seconds of arc
240428 G96  0.4-  0.2-    240428 J95  0.4+  0.4+    240428 L01  0.6+  0.1+
240428 G96  0.1+  0.3+    240428 J95  0.1-  0.1+    240429 L01  0.1-  0.1+
240428 G96  0.0   0.8-    240428 J95  0.4+  0.5+    240429 L01  0.3-  0.1+
240428 G96  0.2-  0.4-    240428 J95  0.2-  0.5-    240429 L01  0.3-  1.1-
240428 I52  0.2+  0.2+    240428 C75  0.0   0.1+    240429 104  0.2+  0.1-
240428 I52  0.1+  0.2+    240428 J95  0.3-  0.2-    240429 104  0.2-  0.1+
240428 I52  0.2+  0.1-    240428 L01  0.0   0.4-
240428 I52  0.1-  0.1+    240428 L01  0.3+  0.1-
Ephemeris:
2024 HS1                 a,e,i = 1.76, 0.38, 27                  q = 1.0889
Date    TT    R. A. (2000) Decl.     Delta      r    Elong.  Phase     V
2024 03 30    15 28 03.8 +30 44 40   0.3564  1.2428   126.2    40.4    23.9
...
2024 04 14    15 13 56.9 +22 50 50   0.2242  1.1811   138.9    33.9    22.6
...
2024 04 22    14 52 08.7 +11 38 28   0.1637  1.1532   152.8    23.5    21.5
...
2024 04 28    14 24 25.0 -03 47 48   0.1303  1.1351   169.6     9.2    20.5
2024 04 29    14 18 29.2 -07 06 47   0.1263  1.1324   172.5     6.7    20.3
2024 04 30    14 12 06.8 -10 37 31   0.1230  1.1297   174.1     5.3    20.2
...
2024 05 06    13 23 06.1 -33 41 30   0.1175  1.1152   153.5    23.8    20.8
...
2024 05 14    11 47 04.3 -56 44 20   0.1462  1.1006   124.8    48.9    21.9
...
2024 05 29    08 47 19.0 -67 48 50   0.2456  1.0889   101.4    65.9    23.5
M. P. C. Staff               (C) Copyright 2024 MPC           M.P.E.C. 2024-H93
    
    
More information about the Iaude
mailing list